Change the Weather History Date:

Sunday, July 8, 2012

  Actual Average Record
Temperature  
Mean Temperature 92 °F 88 °F  
Max Temperature 102 °F 101 °F 111 °F (1994)
Min Temperature 81 °F 74 °F 63 °F (1936)
Degree Days  
Heating Degree Days 0 0  
Month to date heating degree days 0 0  
Since 1 June heating degree days 0 0  
Since 1 July heating degree days 0 0  
Cooling Degree Days 27 23  
Month to date cooling degree days 174 184  
Year to date cooling degree days 1543 1280  
Since 1 June cooling degree days 866 778  
Growing Degree Days 42 (Base 50)    
Moisture  
Dew Point 57 °F    
Average Humidity 34    
Maximum Humidity 45    
Minimum Humidity 22    
Precipitation  
Precipitation 0.02 in 0.06 in 1.29 in (1897)
Month to date precipitation 0.86 0.35  
Year to date precipitation 1.88 3.62  
Snow  
Snow 0.00 in - - ()
Month to date snowfall 0.0  
Snow Depth 0.00 in    
Sea Level Pressure  
Sea Level Pressure 29.88 in    
Wind  
Wind Speed 8 mph (ESE)    
Max Wind Speed 28 mph    
Max Gust Speed 33 mph    
Visibility 10 miles    
Events Thunderstorm    
T = Trace of Precipitation, MM = Missing Value Source: NWS Daily Summary

Daily Weather History Graph

Daily Weather History Graph

Search for Another Location

Airport or City:

Trip Planner

Search our weather history database for the weather conditions in past years. The results will help you decide how hot, cold, wet, or windy it might be!

Date:

Astronomy

Jul. 08, 2012 Rise Set
Actual Time 5:24 AM MST 7:33 PM MST
Civil Twilight 4:56 AM MST 8:01 PM MST
Nautical Twilight 4:22 AM MST 8:35 PM MST
Astronomical Twilight 3:45 AM MST 9:11 PM MST
Moon 10:46 PM MST (7/8) 10:33 AM MST (7/8)
Length of Visible Light 15h 04m
Length of Day
14h 08m
Waning Gibbous, 72% of the Moon is Illuminated
Jul 8
Waning Gibbous
Jul 10
Last Quarter
Jul 18
New
Jul 26
First Quarter
Aug 1
Full

Hourly Weather History & Observations

Time (MST) Temp. Heat Index Dew Point Humidity Pressure Visibility Wind Dir Wind Speed Gust Speed Precip Events Conditions
12:53 AM 86.0 °F 84.7 °F 55.9 °F 36% 29.87 in 10.0 mi SSE 9.2 mph - N/A   Clear
1:53 AM 84.0 °F 83.3 °F 57.0 °F 40% 29.86 in 10.0 mi ESE 9.2 mph - N/A   Clear
2:53 AM 82.9 °F 82.4 °F 57.0 °F 41% 29.85 in 10.0 mi South 6.9 mph - N/A   Clear
3:53 AM 82.0 °F 81.6 °F 55.9 °F 41% 29.87 in 10.0 mi South 6.9 mph - N/A   Clear
4:53 AM 81.0 °F 81.1 °F 57.9 °F 45% 29.87 in 10.0 mi SE 10.4 mph - N/A   Clear
5:53 AM 82.0 °F 81.6 °F 55.9 °F 41% 29.88 in 10.0 mi ESE 9.2 mph - N/A   Clear
6:53 AM 82.9 °F 82.4 °F 57.0 °F 41% 29.88 in 10.0 mi East 6.9 mph - N/A   Clear
7:53 AM 84.9 °F 84.2 °F 57.9 °F 40% 29.89 in 10.0 mi ESE 8.1 mph - N/A   Clear
8:53 AM 87.1 °F 85.9 °F 57.0 °F 36% 29.90 in 10.0 mi East 6.9 mph - N/A   Clear
9:53 AM 90.0 °F 87.9 °F 55.0 °F 30% 29.89 in 10.0 mi East 6.9 mph - N/A   Clear
10:53 AM 93.0 °F 91.4 °F 55.9 °F 29% 29.88 in 10.0 mi ENE 6.9 mph - N/A   Clear
11:53 AM 97.0 °F 94.6 °F 53.1 °F 23% 29.86 in 10.0 mi ENE 6.9 mph - N/A   Clear
12:53 PM 98.1 °F 95.7 °F 53.1 °F 22% 29.83 in 10.0 mi Calm Calm - N/A   Clear
1:04 PM 98.6 °F 96.4 °F 53.6 °F 22% 30.00 in 10.0 mi Calm Calm - N/A Thunderstorm Clear
1:19 PM 100.4 °F 98.4 °F 53.6 °F 21% 30.00 in 10.0 mi Variable 4.6 mph - N/A   Clear
1:49 PM 93.2 °F 91.9 °F 57.2 °F 30% 30.00 in 10.0 mi SSE 26.5 mph 32.2 mph N/A Thunderstorm Thunderstorm
1:53 PM 91.9 °F 91.5 °F 60.1 °F 34% 29.84 in 10.0 mi South 21.9 mph 32.2 mph N/A Thunderstorm Thunderstorm
2:12 PM 87.8 °F 90.4 °F 66.2 °F 49% 29.99 in 10.0 mi WSW 8.1 mph - 0.02 in   Scattered Clouds
2:53 PM 93.0 °F 94.2 °F 63.0 °F 37% 29.82 in 10.0 mi SSW 6.9 mph - 0.02 in   Clear
3:53 PM 96.1 °F 94.5 °F 55.9 °F 26% 29.80 in 10.0 mi SW 6.9 mph - N/A   Clear
4:22 PM 96.8 °F 95.1 °F 55.4 °F 25% 29.98 in 10.0 mi ENE 15.0 mph 21.9 mph N/A Thunderstorm Partly Cloudy
4:34 PM 95.0 °F 93.0 °F 55.4 °F 26% 29.98 in 10.0 mi ENE 20.7 mph 29.9 mph N/A   Partly Cloudy
4:53 PM 96.1 °F 94.1 °F 55.0 °F 25% 29.81 in 10.0 mi ENE 18.4 mph 25.3 mph N/A   Clear
5:53 PM 96.1 °F 94.1 °F 55.0 °F 25% 29.79 in 10.0 mi East 9.2 mph - N/A   Clear
6:00 PM 96.8 °F 95.1 °F 55.4 °F 25% 29.95 in 10.0 mi NE 6.9 mph - N/A   Clear
6:53 PM 93.9 °F 91.7 °F 54.0 °F 26% 29.80 in 10.0 mi ENE 6.9 mph - N/A   Clear
7:53 PM 91.0 °F 89.7 °F 57.0 °F 32% 29.81 in 10.0 mi SSE 4.6 mph - N/A   Clear
8:53 PM 90.0 °F 89.1 °F 59.0 °F 35% 29.83 in 10.0 mi South 5.8 mph - N/A   Clear
9:53 PM 86.0 °F 85.4 °F 59.0 °F 40% 29.83 in 10.0 mi South 4.6 mph - N/A   Clear
10:53 PM 84.9 °F 84.4 °F 59.0 °F 41% 29.84 in 10.0 mi SE 6.9 mph - N/A   Clear
11:53 PM 84.9 °F 84.2 °F 57.9 °F 40% 29.85 in 10.0 mi ESE 5.8 mph - N/A   Clear